User: anonymous   Login
Location: Newark
(4.2170°N, 12.9170°E)
Time: 10:11:25
(UTC+00:00)
Language:

N. Korean satellite - Orbit

View from above orbital plane
View from above orbital plane
View from above satellite
View from above satellite

Ground track
Ground track

The orbit data is extracted from the following two-line orbital elements,

1 39026U 12072A   19343.66386419 +.00000594 +00000-0 +23835-4 0  9998
2 39026 097.2159 341.2675 0037009 200.2959 159.6812 15.28226226388107
Epoch (UTC): 09 December 2019 15:55:57
Eccentricity: 0.0037009
inclination: 97.2159°
perigee height: 456 km
apogee height: 506 km
right ascension of ascending node: 341.2675°
argument of perigee: 200.2959°
revolutions per day: 15.28226226
mean anomaly at epoch: 159.6812°
orbit number at epoch: 38810

The dashed part of the orbit path shows where the satellite is in the earth's shadow,  

DLR